カタログに戻る

NOAA 16 DEB

運用中SSO
NORAD 41084·DEBRIS·🇺🇸 United States

打ち上げ Sep 21, 2000 から Vandenberg Space Force Base

Loading…

次のパス (今後24時間)

TLE

最新Source: Space-Track

元期: Sep 14, 2026, 04:48 UTC

1 41084U 00055AT  26257.20049446  .00000816  00000-0  37526-3 0  9999
2 41084  98.6907 342.7519 0014531 325.8560  34.1683 14.23840277558834

AllMySatでNOAA 16 DEBをリアルタイム追跡

Download on the App Store